Flag for U.S.A. Weather past 2 weeks in Vallejo, California, U.S.A.

Now
62 °F

Passing clouds.


Feels Like: 62 °F
Forecast: 59 / 74 °F
Wind: 13 mph from West

Location: Napa County Airport

Current Time: Aug 2, 2015 at 2:30:13 AM

Latest Report: Aug 2, 2015 at 1:54 AM


Visibility: 10 mi

Pressure: 29.91 "Hg

Humidity: 90%

Dew point: 59 °F

Location of VallejoLocation

Historic Weather in Vallejo — Graph

°F

Vallejo temperature yesterday

Maximum temperature yesterday: 81 °F (at 4:54 PM)
Minimum temperature yesterday: 59 °F (at 1:54 AM)
Average temperature yesterday: 67 °F

Past Weeks' High & Low Weather Summary

 TemperatureHumidityPressure
High94 °F (Jul 28, 2:54 PM)100% (Jul 24, 4:54 AM)30.09 "Hg (Jul 24, 4:54 AM)
Low48 °F (Jul 24, 6:02 AM)17% (Jul 28, 1:54 PM)29.78 "Hg (Jul 21, 5:54 PM)
Average67 °F71%29.91 "Hg
* Reported Jul 18 12:54 AM — Aug 2 12:54 AM, Vallejo, Weather by CustomWeather, © 2015

Note: Actual official high and low records may vary slightly from our data, if they occured in-between our weather recording intervals... More about our weather records

Advertising

Vallejo weather history for previous 24 hours

 ConditionsComfort  
Time TempWeatherWind HumidityBarometerVisibility
12:54 AM
Sun, Aug 2
62 °FPassing clouds.14 mph90%29.91 "Hg10 mi
11:54 PM
Sat, Aug 1
63 °FPassing clouds.13 mph87%29.92 "Hg10 mi
10:54 PM63 °FClear.14 mph87%29.92 "Hg10 mi
9:54 PM63 °FClear.17 mph87%29.93 "Hg10 mi
8:54 PM64 °FSunny.17 mph84%29.91 "Hg10 mi
7:54 PM69 °FSunny.16 mph68%29.87 "Hg10 mi
6:54 PM75 °FSunny.16 mph50%29.86 "Hg10 mi
5:54 PM80 °FSunny.17 mph42%29.85 "Hg10 mi
4:54 PM81 °FSunny.15 mph47%29.86 "Hg10 mi
3:54 PM79 °FSunny.20 mph52%29.86 "Hg10 mi
2:54 PM78 °FSunny.17 mph54%29.88 "Hg10 mi
1:54 PM77 °FSunny.14 mph54%29.91 "Hg10 mi
12:54 PM76 °FSunny.12 mph56%29.94 "Hg10 mi
11:54 AM76 °FSunny.13 mph50%29.96 "Hg10 mi
10:54 AM70 °FPassing clouds.14 mph64%29.98 "Hg10 mi
9:54 AM65 °FPartly sunny.12 mph76%29.99 "Hg10 mi
8:54 AM62 °FOvercast.12 mph83%30.00 "Hg10 mi
7:54 AM61 °FOvercast.13 mph83%29.99 "Hg10 mi
6:54 AM60 °FOvercast.13 mph86%29.97 "Hg10 mi
5:54 AM59 °FMostly cloudy.13 mph93%29.95 "Hg10 mi
4:54 AM59 °FClear.15 mph93%29.94 "Hg10 mi
3:54 AM59 °FClear.13 mph93%29.93 "Hg10 mi
2:54 AM59 °FLow clouds.15 mph93%29.93 "Hg10 mi
Weather by CustomWeather, © 2015

See weather overviewHow to use our weather pages